FFT4401 KLAS-KSFO

Flight info

Callsign FFT4401
Flight time 1h 18m
Altitude 36000
Route JOHKR5 KENNO RUSME DYAMD5
Aircraft A20N/M-SDE2E3FGHIRWXY/LB1

Departure

Time 2026-05-03 21:05
Airport Harry Reid International Airport (KLAS)

Arrival

Time 2026-05-03 22:23
Airport San Francisco International Airport (KSFO)
Time Latitude Longitude Altitude Speed Heading
2026-05-03 20:46 36.08223 -115.13589 2080 ft 0 kts 304°
2026-05-03 20:54 36.08212 -115.13569 2079 ft 2 kts 303°
2026-05-03 20:54 36.08202 -115.13552 2079 ft 2 kts 304°
2026-05-03 20:55 36.08198 -115.13533 2079 ft 2 kts 267°
2026-05-03 20:55 36.08200 -115.13513 2079 ft 2 kts 259°
2026-05-03 20:55 36.08203 -115.13493 2078 ft 2 kts 256°
2026-05-03 20:55 36.08207 -115.13473 2076 ft 2 kts 253°
2026-05-03 20:56 36.08212 -115.13453 2077 ft 2 kts 250°
2026-05-03 20:56 36.08218 -115.13434 2072 ft 2 kts 247°
2026-05-03 20:56 36.08222 -115.13422 2073 ft 2 kts 245°
2026-05-03 20:56 36.08228 -115.13408 2074 ft 2 kts 240°
2026-05-03 20:57 36.08237 -115.13391 2073 ft 2 kts 227°
2026-05-03 20:57 36.08243 -115.13383 2073 ft 1 kts 204°
2026-05-03 20:57 36.08244 -115.13383 2073 ft 0 kts 199°
2026-05-03 20:58 36.08233 -115.13383 2074 ft 6 kts 176°
2026-05-03 20:58 36.08166 -115.13365 2073 ft 14 kts 175°
2026-05-03 20:59 36.08052 -115.13374 2075 ft 18 kts 184°
2026-05-03 20:59 36.07938 -115.13379 2079 ft 14 kts 176°
2026-05-03 20:59 36.07862 -115.13374 2081 ft 8 kts 174°
2026-05-03 20:59 36.07830 -115.13370 2081 ft 2 kts 178°
2026-05-03 21:00 36.07822 -115.13370 2081 ft 1 kts 177°
2026-05-03 21:00 36.07810 -115.13370 2081 ft 5 kts 181°
2026-05-03 21:00 36.07755 -115.13294 2076 ft 17 kts 90°
2026-05-03 21:00 36.07752 -115.13103 2065 ft 28 kts 90°
2026-05-03 21:01 36.07759 -115.12822 2052 ft 36 kts 90°
2026-05-03 21:01 36.07758 -115.12494 2043 ft 39 kts 89°
2026-05-03 21:01 36.07748 -115.12277 2037 ft 0 kts 112°
2026-05-03 21:01 36.07750 -115.12231 2030 ft 14 kts 82°
2026-05-03 21:02 36.07741 -115.12150 2035 ft 0 kts 127°
2026-05-03 21:03 36.07723 -115.12140 2028 ft 6 kts 162°
2026-05-03 21:03 36.07669 -115.12145 2033 ft 13 kts 212°
2026-05-03 21:03 36.07639 -115.12268 2032 ft 21 kts 269°
2026-05-03 21:03 36.07642 -115.12510 2040 ft 33 kts 269°
2026-05-03 21:04 36.07641 -115.12631 2046 ft 0 kts 269°
2026-05-03 21:04 36.07641 -115.12632 2046 ft 3 kts 269°
2026-05-03 21:04 36.07642 -115.12972 2059 ft 75 kts 270°
2026-05-03 21:04 36.07640 -115.13892 2098 ft 138 kts 270°
2026-05-03 21:05 36.07615 -115.15317 2187 ft 191 kts 267°
2026-05-03 21:05 36.07617 -115.17042 2651 ft 196 kts 267°
2026-05-03 21:05 36.07715 -115.18845 2957 ft 214 kts 272°
2026-05-03 21:05 36.07853 -115.20680 3219 ft 211 kts 274°
2026-05-03 21:06 36.08173 -115.22533 3685 ft 229 kts 271°
2026-05-03 21:06 36.07890 -115.24448 4354 ft 231 kts 228°
2026-05-03 21:06 36.06681 -115.25684 5308 ft 234 kts 206°
2026-05-03 21:06 36.05190 -115.26607 6103 ft 246 kts 202°
2026-05-03 21:07 36.03568 -115.27454 6719 ft 258 kts 199°
2026-05-03 21:07 36.01899 -115.28239 7684 ft 259 kts 199°
2026-05-03 21:07 36.00203 -115.29072 8626 ft 263 kts 200°
2026-05-03 21:07 35.98645 -115.29921 9510 ft 268 kts 203°
2026-05-03 21:08 35.98249 -115.30143 9741 ft 269 kts 202°
2026-05-03 21:08 35.96596 -115.31121 10474 ft 281 kts 204°
2026-05-03 21:08 35.94777 -115.32247 11027 ft 303 kts 205°
2026-05-03 21:09 35.92853 -115.33482 11645 ft 321 kts 206°
2026-05-03 21:09 35.90978 -115.35043 12270 ft 341 kts 224°
2026-05-03 21:09 35.89765 -115.37651 12942 ft 365 kts 249°
2026-05-03 21:09 35.89213 -115.40781 13609 ft 382 kts 258°
2026-05-03 21:10 35.88906 -115.44068 14435 ft 387 kts 260°
2026-05-03 21:10 35.88735 -115.47411 15322 ft 393 kts 263°
2026-05-03 21:10 35.88695 -115.50800 16195 ft 398 kts 266°
2026-05-03 21:10 35.88731 -115.54242 17079 ft 403 kts 267°
2026-05-03 21:11 35.88795 -115.57710 17951 ft 406 kts 268°
2026-05-03 21:11 35.88875 -115.61209 18739 ft 409 kts 268°
2026-05-03 21:11 35.88972 -115.64726 19545 ft 411 kts 269°
2026-05-03 21:11 35.89068 -115.68253 20327 ft 412 kts 268°
2026-05-03 21:12 35.89155 -115.71794 21106 ft 414 kts 268°
2026-05-03 21:12 35.89234 -115.75361 21843 ft 416 kts 268°
2026-05-03 21:12 35.89296 -115.78887 22586 ft 417 kts 267°
2026-05-03 21:12 35.89353 -115.82474 23324 ft 419 kts 266°
2026-05-03 21:13 35.89406 -115.86063 23977 ft 418 kts 266°
2026-05-03 21:13 35.89459 -115.89642 24718 ft 415 kts 267°
2026-05-03 21:13 35.89652 -115.93198 25422 ft 419 kts 277°
2026-05-03 21:13 35.90847 -115.96529 26112 ft 438 kts 299°
2026-05-03 21:14 35.92906 -115.99346 26892 ft 443 kts 307°
2026-05-03 21:14 35.95126 -116.01952 27872 ft 437 kts 308°
2026-05-03 21:14 35.97350 -116.04461 28822 ft 430 kts 308°
2026-05-03 21:14 35.99543 -116.06916 29827 ft 421 kts 307°
2026-05-03 21:15 36.01688 -116.09330 30608 ft 415 kts 306°
2026-05-03 21:15 36.03791 -116.11745 31266 ft 410 kts 305°
2026-05-03 21:15 36.05858 -116.14161 31935 ft 406 kts 304°
2026-05-03 21:15 36.07886 -116.16565 32583 ft 402 kts 304°
2026-05-03 21:16 36.09882 -116.18958 33232 ft 397 kts 303°
2026-05-03 21:16 36.11849 -116.21338 33838 ft 393 kts 303°
2026-05-03 21:16 36.13787 -116.23710 34288 ft 392 kts 303°
2026-05-03 21:16 36.15716 -116.26094 34682 ft 392 kts 302°
2026-05-03 21:17 36.17638 -116.28486 35049 ft 392 kts 303°
2026-05-03 21:17 36.18911 -116.30076 35295 ft 393 kts 302°
2026-05-03 21:17 36.21432 -116.33219 35599 ft 384 kts 302°
2026-05-03 21:17 36.23317 -116.35579 35683 ft 387 kts 302°
2026-05-03 21:18 36.27164 -116.40398 35735 ft 398 kts 303°
2026-05-03 21:18 36.31133 -116.45190 35740 ft 397 kts 304°
2026-05-03 21:19 36.35106 -116.49921 35735 ft 395 kts 304°
2026-05-03 21:19 36.39094 -116.54679 35759 ft 400 kts 304°
2026-05-03 21:20 36.43118 -116.59477 35751 ft 401 kts 305°
2026-05-03 21:20 36.47223 -116.64228 35747 ft 406 kts 306°
2026-05-03 21:21 36.51376 -116.68967 35756 ft 405 kts 306°
2026-05-03 21:21 36.55551 -116.73694 35758 ft 407 kts 306°
2026-05-03 21:22 36.59716 -116.78440 35758 ft 410 kts 306°
2026-05-03 21:22 36.63926 -116.83260 35763 ft 411 kts 306°
2026-05-03 21:23 36.68144 -116.88088 35767 ft 412 kts 307°
2026-05-03 21:23 36.72548 -116.92754 35781 ft 426 kts 315°
2026-05-03 21:24 36.77691 -116.96609 35773 ft 434 kts 320°
2026-05-03 21:24 36.82981 -117.00301 35762 ft 438 kts 318°
2026-05-03 21:25 36.88316 -117.03962 35752 ft 441 kts 320°
2026-05-03 21:25 36.93744 -117.07548 35754 ft 440 kts 321°
2026-05-03 21:26 36.99213 -117.11089 35774 ft 445 kts 323°
2026-05-03 21:26 37.04737 -117.14630 35772 ft 446 kts 323°
2026-05-03 21:27 37.10262 -117.18195 35812 ft 449 kts 325°
2026-05-03 21:27 37.15836 -117.21762 35813 ft 450 kts 325°
2026-05-03 21:28 37.21357 -117.25395 35819 ft 447 kts 324°
2026-05-03 21:28 37.26869 -117.29052 35830 ft 447 kts 317°
2026-05-03 21:29 37.31846 -117.33572 35842 ft 444 kts 316°
2026-05-03 21:29 37.36692 -117.38372 35832 ft 442 kts 314°
2026-05-03 21:30 37.41404 -117.43339 35832 ft 442 kts 313°
2026-05-03 21:30 37.46076 -117.48387 35834 ft 443 kts 312°
2026-05-03 21:31 37.48078 -117.51235 35861 ft 427 kts 292°
2026-05-03 21:31 37.49078 -117.54671 35887 ft 416 kts 277°
2026-05-03 21:31 37.49987 -117.61865 35847 ft 416 kts 273°
2026-05-03 21:32 37.50677 -117.69062 35840 ft 412 kts 272°
2026-05-03 21:32 37.51195 -117.75027 35834 ft 413 kts 272°
2026-05-03 21:33 37.51796 -117.82244 35839 ft 415 kts 272°
2026-05-03 21:33 37.52389 -117.89480 35834 ft 415 kts 272°
2026-05-03 21:34 37.52975 -117.96711 35832 ft 415 kts 272°
2026-05-03 21:34 37.53557 -118.03952 35833 ft 416 kts 272°
2026-05-03 21:35 37.54132 -118.11233 35836 ft 418 kts 272°
2026-05-03 21:35 37.54702 -118.18466 35851 ft 417 kts 272°
2026-05-03 21:36 37.55272 -118.25749 35856 ft 418 kts 272°
2026-05-03 21:36 37.55835 -118.33061 35864 ft 420 kts 272°
2026-05-03 21:37 37.56394 -118.40346 35868 ft 419 kts 272°
2026-05-03 21:37 37.56950 -118.47659 35862 ft 420 kts 272°
2026-05-03 21:38 37.57504 -118.55013 35953 ft 423 kts 272°
2026-05-03 21:38 37.58057 -118.62402 36010 ft 423 kts 272°
2026-05-03 21:39 37.58605 -118.69764 36045 ft 421 kts 272°
2026-05-03 21:39 37.59145 -118.77149 36074 ft 425 kts 272°
2026-05-03 21:40 37.59683 -118.84582 36067 ft 426 kts 272°
2026-05-03 21:40 37.60222 -118.92003 36043 ft 424 kts 271°
2026-05-03 21:41 37.60749 -118.99392 36029 ft 427 kts 271°
2026-05-03 21:41 37.61279 -119.06851 36023 ft 428 kts 271°
2026-05-03 21:42 37.61800 -119.14319 36001 ft 427 kts 271°
2026-05-03 21:42 37.62317 -119.21797 35990 ft 429 kts 271°
2026-05-03 21:43 37.62833 -119.29324 35968 ft 431 kts 271°
2026-05-03 21:43 37.63348 -119.36864 35959 ft 431 kts 271°
2026-05-03 21:44 37.63852 -119.44411 35963 ft 432 kts 272°
2026-05-03 21:44 37.64380 -119.51984 35956 ft 434 kts 272°
2026-05-03 21:45 37.64887 -119.59565 35961 ft 433 kts 271°
2026-05-03 21:45 37.65367 -119.66984 35956 ft 434 kts 271°
2026-05-03 21:46 37.65841 -119.74349 35957 ft 435 kts 271°
2026-05-03 21:46 37.66322 -119.81963 35908 ft 436 kts 272°
2026-05-03 21:47 37.66569 -119.85791 35712 ft 437 kts 272°
2026-05-03 21:47 37.66815 -119.89614 35329 ft 438 kts 272°
2026-05-03 21:47 37.67059 -119.93458 34662 ft 440 kts 272°
2026-05-03 21:47 37.67300 -119.97323 33855 ft 442 kts 272°
2026-05-03 21:48 37.67536 -120.01149 33417 ft 431 kts 272°
2026-05-03 21:48 37.67764 -120.04876 33002 ft 420 kts 272°
2026-05-03 21:48 37.67983 -120.08505 32612 ft 410 kts 272°
2026-05-03 21:48 37.68198 -120.12073 32068 ft 406 kts 273°
2026-05-03 21:49 37.68407 -120.15634 31290 ft 408 kts 273°
2026-05-03 21:49 37.68615 -120.19219 30535 ft 411 kts 274°
2026-05-03 21:49 37.68825 -120.22834 29768 ft 414 kts 274°
2026-05-03 21:49 37.69029 -120.26228 29137 ft 412 kts 274°
2026-05-03 21:50 37.69206 -120.29067 28682 ft 409 kts 274°
2026-05-03 21:50 37.69429 -120.32627 28090 ft 405 kts 274°
2026-05-03 21:50 37.69625 -120.36168 27525 ft 401 kts 270°
2026-05-03 21:50 37.69558 -120.39709 27190 ft 404 kts 265°
2026-05-03 21:51 37.69339 -120.43199 26938 ft 395 kts 263°
2026-05-03 21:51 37.69053 -120.46634 26425 ft 391 kts 262°
2026-05-03 21:51 37.68728 -120.50023 25914 ft 387 kts 261°
2026-05-03 21:51 37.68379 -120.53376 25407 ft 383 kts 260°
2026-05-03 21:52 37.68015 -120.56688 24936 ft 379 kts 259°
2026-05-03 21:52 37.67643 -120.59969 24448 ft 375 kts 259°
2026-05-03 21:52 37.67267 -120.63211 23978 ft 371 kts 259°
2026-05-03 21:52 37.66890 -120.66423 23507 ft 368 kts 259°
2026-05-03 21:53 37.66513 -120.69598 22972 ft 364 kts 259°
2026-05-03 21:53 37.66139 -120.72740 22463 ft 360 kts 258°
2026-05-03 21:53 37.65765 -120.75861 22160 ft 358 kts 258°
2026-05-03 21:53 37.65401 -120.78899 22034 ft 351 kts 258°
2026-05-03 21:54 37.65034 -120.81946 21988 ft 352 kts 258°
2026-05-03 21:54 37.64663 -120.85003 21966 ft 353 kts 258°
2026-05-03 21:54 37.64291 -120.88072 21838 ft 353 kts 258°
2026-05-03 21:54 37.63936 -120.91132 21539 ft 352 kts 263°
2026-05-03 21:55 37.64095 -120.94209 21086 ft 353 kts 277°
2026-05-03 21:55 37.64551 -120.97238 20608 ft 350 kts 279°
2026-05-03 21:55 37.65058 -121.00225 20113 ft 347 kts 280°
2026-05-03 21:55 37.65580 -121.03180 19655 ft 343 kts 280°
2026-05-03 21:56 37.66107 -121.06104 19194 ft 339 kts 279°
2026-05-03 21:56 37.66372 -121.08989 18746 ft 332 kts 268°
2026-05-03 21:56 37.66375 -121.11882 18299 ft 328 kts 265°
2026-05-03 21:56 37.66333 -121.14743 17806 ft 325 kts 268°
2026-05-03 21:57 37.66610 -121.17577 17283 ft 325 kts 278°
2026-05-03 21:57 37.67075 -121.20344 16801 ft 323 kts 279°
2026-05-03 21:57 37.67570 -121.23066 16312 ft 321 kts 280°
2026-05-03 21:57 37.68087 -121.25798 15826 ft 319 kts 280°
2026-05-03 21:58 37.68609 -121.28504 15365 ft 316 kts 281°
2026-05-03 21:58 37.69104 -121.31057 14904 ft 314 kts 281°
2026-05-03 21:58 37.69638 -121.33794 14443 ft 311 kts 281°
2026-05-03 21:58 37.70153 -121.36438 13999 ft 308 kts 281°
2026-05-03 21:59 37.70662 -121.39054 13523 ft 306 kts 281°
2026-05-03 21:59 37.71169 -121.41662 13028 ft 304 kts 280°
2026-05-03 21:59 37.71671 -121.44247 12520 ft 303 kts 280°
2026-05-03 21:59 37.72166 -121.46807 12050 ft 301 kts 280°
2026-05-03 22:00 37.72661 -121.49368 11567 ft 300 kts 280°
2026-05-03 22:00 37.73161 -121.51915 11093 ft 298 kts 281°
2026-05-03 22:00 37.73657 -121.54459 10627 ft 297 kts 281°
2026-05-03 22:00 37.74144 -121.56929 10499 ft 279 kts 281°
2026-05-03 22:01 37.74586 -121.59195 10379 ft 261 kts 280°
2026-05-03 22:01 37.74924 -121.61365 10227 ft 243 kts 269°
2026-05-03 22:01 37.74968 -121.63452 9833 ft 241 kts 266°
2026-05-03 22:01 37.74980 -121.65583 9306 ft 243 kts 265°
2026-05-03 22:02 37.74947 -121.67707 8890 ft 240 kts 264°
2026-05-03 22:02 37.74894 -121.69804 8488 ft 237 kts 264°
2026-05-03 22:02 37.74834 -121.71882 8047 ft 236 kts 263°
2026-05-03 22:02 37.74769 -121.73956 7588 ft 236 kts 263°
2026-05-03 22:03 37.74704 -121.76024 7172 ft 235 kts 263°
2026-05-03 22:03 37.74641 -121.78084 6772 ft 234 kts 263°
2026-05-03 22:03 37.74577 -121.80109 6358 ft 234 kts 263°
2026-05-03 22:03 37.74511 -121.82158 5945 ft 231 kts 264°
2026-05-03 22:04 37.74449 -121.84165 5531 ft 228 kts 264°
2026-05-03 22:04 37.74392 -121.86146 5226 ft 221 kts 264°
2026-05-03 22:04 37.74338 -121.88032 5088 ft 208 kts 264°
2026-05-03 22:04 37.74289 -121.89788 5028 ft 190 kts 264°
2026-05-03 22:05 37.74257 -121.91362 5001 ft 169 kts 268°
2026-05-03 22:05 37.74293 -121.92745 4942 ft 148 kts 264°
2026-05-03 22:05 37.74134 -121.94023 4360 ft 154 kts 233°
2026-05-03 22:05 37.73510 -121.95103 4122 ft 139 kts 231°
2026-05-03 22:06 37.72988 -121.96102 3739 ft 140 kts 234°
2026-05-03 22:06 37.72460 -121.97142 3251 ft 139 kts 234°
2026-05-03 22:06 37.71931 -121.98168 2958 ft 137 kts 236°
2026-05-03 22:06 37.71430 -121.99136 2664 ft 132 kts 236°
2026-05-03 22:07 37.70922 -122.00106 2248 ft 134 kts 237°
2026-05-03 22:07 37.70385 -122.01074 1835 ft 133 kts 236°
2026-05-03 22:07 37.69876 -122.02021 1497 ft 133 kts 239°
2026-05-03 22:07 37.69401 -122.03022 1204 ft 132 kts 238°
2026-05-03 22:08 37.69012 -122.04009 982 ft 123 kts 244°
2026-05-03 22:08 37.68527 -122.05096 878 ft 162 kts 238°
2026-05-03 22:08 37.67892 -122.06412 1440 ft 192 kts 240°
2026-05-03 22:08 37.67242 -122.07779 2118 ft 151 kts 240°
2026-05-03 22:09 37.66746 -122.08790 2455 ft 135 kts 239°
2026-05-03 22:09 37.66255 -122.09781 2741 ft 133 kts 238°
2026-05-03 22:09 37.65757 -122.10772 2989 ft 134 kts 237°
2026-05-03 22:10 37.64751 -122.12791 3411 ft 137 kts 236°
2026-05-03 22:10 37.64239 -122.13812 3608 ft 138 kts 235°
2026-05-03 22:10 37.63718 -122.14834 3805 ft 139 kts 234°
2026-05-03 22:10 37.63192 -122.15865 4006 ft 140 kts 234°
2026-05-03 22:11 37.62669 -122.16905 4221 ft 141 kts 234°
2026-05-03 22:11 37.62145 -122.17935 4421 ft 141 kts 234°
2026-05-03 22:11 37.61617 -122.18990 4649 ft 143 kts 240°
2026-05-03 22:11 37.61512 -122.20226 4895 ft 145 kts 269°
2026-05-03 22:12 37.61525 -122.21552 4957 ft 157 kts 265°
2026-05-03 22:12 37.61479 -122.22977 4974 ft 164 kts 263°
2026-05-03 22:12 37.61401 -122.24407 4992 ft 163 kts 261°
2026-05-03 22:12 37.61325 -122.25830 4984 ft 162 kts 261°
2026-05-03 22:13 37.61277 -122.27267 4817 ft 169 kts 265°
2026-05-03 22:13 37.61295 -122.28712 4228 ft 167 kts 264°
2026-05-03 22:13 37.61178 -122.30364 3791 ft 195 kts 263°
2026-05-03 22:13 37.61216 -122.32126 4287 ft 220 kts 289°
2026-05-03 22:14 37.62229 -122.33718 4727 ft 255 kts 331°
2026-05-03 22:14 37.64056 -122.34283 4965 ft 296 kts
2026-05-03 22:14 37.66130 -122.33430 5019 ft 338 kts 33°
2026-05-03 22:14 37.68240 -122.31761 4989 ft 378 kts 28°
2026-05-03 22:15 37.70783 -122.30431 4991 ft 414 kts 15°
2026-05-03 22:15 37.73642 -122.30261 4981 ft 412 kts 351°
2026-05-03 22:15 37.76309 -122.31490 4997 ft 407 kts 332°
2026-05-03 22:15 37.78902 -122.32717 4981 ft 393 kts 350°
2026-05-03 22:16 37.81606 -122.32565 5000 ft 392 kts 15°
2026-05-03 22:16 37.84052 -122.30999 5013 ft 391 kts 40°
2026-05-03 22:16 37.85748 -122.28362 5020 ft 387 kts 64°
2026-05-03 22:16 37.87014 -122.25362 5013 ft 388 kts 60°
2026-05-03 22:17 37.88594 -122.22632 5010 ft 391 kts 53°
2026-05-03 22:17 37.89952 -122.19700 4972 ft 386 kts 73°
2026-05-03 22:17 37.90226 -122.16372 4981 ft 380 kts 99°
2026-05-03 22:17 37.89354 -122.13272 4984 ft 374 kts 124°
2026-05-03 22:18 37.87523 -122.10997 4985 ft 370 kts 150°
2026-05-03 22:18 37.85105 -122.09995 4982 ft 368 kts 175°
2026-05-03 22:18 37.82590 -122.10469 5001 ft 370 kts 201°
2026-05-03 22:18 37.80484 -122.12322 5019 ft 374 kts 226°
2026-05-03 22:19 37.79525 -122.14144 5016 ft 378 kts 243°
2026-05-03 22:19 37.78934 -122.17396 5019 ft 384 kts 264°
2026-05-03 22:19 37.78714 -122.20756 5019 ft 383 kts 259°
2026-05-03 22:19 37.78022 -122.23984 5019 ft 380 kts 246°
2026-05-03 22:20 37.76610 -122.26757 5024 ft 376 kts 223°
2026-05-03 22:20 37.74541 -122.28628 5009 ft 350 kts 210°
2026-05-03 22:20 37.72544 -122.30120 5003 ft 317 kts 208°
2026-05-03 22:20 37.70699 -122.31402 4988 ft 287 kts 206°
2026-05-03 22:21 37.69255 -122.32368 4945 ft 183 kts 206°
2026-05-03 22:21 37.68181 -122.33112 3870 ft 177 kts 206°
2026-05-03 22:21 37.67064 -122.33785 2003 ft 192 kts 207°
2026-05-03 22:21 37.65870 -122.34538 547 ft 188 kts 209°
2026-05-03 22:22 37.64830 -122.35331 328 ft 161 kts 212°
2026-05-03 22:22 37.63970 -122.35906 111 ft 131 kts 205°
2026-05-03 22:22 37.63117 -122.36439 93 ft 140 kts 209°
2026-05-03 22:22 37.62373 -122.36954 17 ft 84 kts 207°
2026-05-03 22:23 37.61979 -122.37217 16 ft 62 kts 208°
2026-05-03 22:23 37.61585 -122.37484 20 ft 64 kts 207°
2026-05-03 22:23 37.61238 -122.37736 19 ft 49 kts 219°
2026-05-03 22:23 37.61031 -122.38024 24 ft 39 kts 234°
2026-05-03 22:24 37.61077 -122.38253 18 ft 28 kts 327°
2026-05-03 22:24 37.61100 -122.38296 18 ft 8 kts 290°
2026-05-03 22:24 37.61137 -122.38402 18 ft 12 kts 290°
2026-05-03 22:24 37.61149 -122.38440 18 ft 2 kts 289°
2026-05-03 22:25 37.61156 -122.38470 19 ft 6 kts 289°
2026-05-03 22:25 37.61158 -122.38475 19 ft 0 kts 295°